Rockford, IL

10:31 PM CDT on August 31, 2016 (GMT -0500)
Greater Rockford

Weather History for KRFD - November, 2011

Change the Weather History Date:

Friday, November 25, 2011

  Actual Average Record
Temperature  
Mean Temperature 46 °F 34 °F  
Max Temperature 54 °F 42 °F 64 °F (1915)
Min Temperature 38 °F 26 °F -4 °F (1950)
Degree Days  
Heating Degree Days 19 31  
Month to date heating degree days 556 619  
Since 1 July heating degree days 1078 1172  
Cooling Degree Days 0 0  
Month to date cooling degree days 0 0  
Year to date cooling degree days 1019 820  
Moisture  
Dew Point 41 °F    
Average Humidity 79    
Maximum Humidity 92    
Minimum Humidity 66    
Precipitation  
Precipitation 0.00 in 0.08 in 0.93 in (1906)
Month to date precipitation 3.47 2.17  
Year to date precipitation 36.42 33.85  
Snow  
Snow 0.00 in 0.10 in 3.30 in (1977)
Month to date snowfall T 1.0  
Since 1 July snowfall T 1.1  
Since 1 September snowfall T 1.1  
Snow Depth -    
Sea Level Pressure  
Sea Level Pressure 29.92 in    
Wind  
Wind Speed 13 mph (South)    
Max Wind Speed 23 mph    
Max Gust Speed 28 mph    
Visibility 9 miles    
Events      
T = Trace of Precipitation, MM = Missing Value Source: NWS Daily Summary

Daily Weather History Graph

Daily Weather History Graph

Search for Another Location

Airport or City:

Trip Planner

Search our weather history database for the weather conditions in past years. The results will help you decide how hot, cold, wet, or windy it might be!

Date:

Astronomy

Nov. 25, 2011 Rise Set
Actual Time 6:58 AM CST 4:27 PM CST
Civil Twilight 6:27 AM CST 4:58 PM CST
Nautical Twilight 5:53 AM CST 5:33 PM CST
Astronomical Twilight 5:19 AM CST 6:06 PM CST
Moon 7:27 AM CST (11/25) 4:54 PM CST (11/25)
Length of Visible Light 10h 31m
Length of Day
9h 29m
New Moon, 0% of the Moon is Illuminated
Nov 25
New Moon
Dec 2
First Quarter
Dec 10
Full
Dec 17
Last Quarter
Dec 24
New

Hourly Weather History & Observations

Time (CST) Temp. Windchill Dew Point Humidity Pressure Visibility Wind Dir Wind Speed Gust Speed Precip Events Conditions
12:54 AM 41.0 °F 34.7 °F 37.9 °F 89% 30.01 in 8.0 mi SSE 10.4 mph - N/A   Partly Cloudy
1:54 AM 41.0 °F 36.4 °F 37.9 °F 89% 30.01 in 8.0 mi South 6.9 mph - N/A   Partly Cloudy
2:54 AM 41.0 °F 35.8 °F 37.0 °F 86% 29.99 in 10.0 mi South 8.1 mph - N/A   Partly Cloudy
3:54 AM 41.0 °F 34.3 °F 37.4 °F 87% 29.97 in 8.0 mi South 11.5 mph - N/A   Partly Cloudy
4:54 AM 39.9 °F 33.4 °F 37.0 °F 89% 29.99 in 8.0 mi South 10.4 mph - N/A   Clear
5:54 AM 39.0 °F 32.3 °F 36.0 °F 89% 29.97 in 8.0 mi South 10.4 mph - N/A   Clear
6:54 AM 37.9 °F 30.0 °F 35.1 °F 89% 29.96 in 7.0 mi South 12.7 mph - N/A   Mostly Cloudy
7:54 AM 41.0 °F 33.5 °F 37.0 °F 86% 29.97 in 8.0 mi South 13.8 mph - N/A   Overcast
8:54 AM 44.1 °F 36.5 °F 39.0 °F 82% 29.96 in 10.0 mi SSW 17.3 mph - N/A   Overcast
9:54 AM 46.9 °F - 39.9 °F 77% 29.96 in 10.0 mi SSW 16.1 mph - N/A   Overcast
10:54 AM 50.0 °F - 39.9 °F 68% 29.94 in 10.0 mi SSW 20.7 mph 26.5 mph N/A   Overcast
11:54 AM 52.0 °F - 41.0 °F 66% 29.90 in 10.0 mi SSW 19.6 mph 26.5 mph N/A   Overcast
12:54 PM 53.1 °F - 42.1 °F 66% 29.88 in 10.0 mi South 20.7 mph 25.3 mph N/A   Overcast
1:54 PM 53.1 °F - 42.1 °F 66% 29.88 in 10.0 mi SSW 19.6 mph - N/A   Overcast
2:54 PM 53.6 °F - 42.8 °F 67% 29.86 in 10.0 mi SSW 16.1 mph - N/A   Overcast
3:54 PM 53.1 °F - 43.0 °F 69% 29.88 in 10.0 mi SSW 15.0 mph - N/A   Overcast
4:54 PM 51.1 °F - 43.0 °F 74% 29.87 in 10.0 mi South 12.7 mph - N/A   Overcast
5:54 PM 50.0 °F - 43.0 °F 77% 29.89 in 10.0 mi South 9.2 mph - N/A   Overcast
6:54 PM 48.0 °F - 43.0 °F 83% 29.89 in 10.0 mi South 6.9 mph - N/A   Overcast
7:54 PM 48.0 °F - 43.0 °F 83% 29.89 in 10.0 mi South 8.1 mph - N/A   Overcast
8:54 PM 50.0 °F - 45.0 °F 83% 29.89 in 10.0 mi South 9.2 mph - N/A   Overcast
9:54 PM 51.8 °F - 44.6 °F 76% 29.86 in 10.0 mi South 13.8 mph - N/A   Overcast
10:54 PM 51.1 °F - 44.1 °F 77% 29.86 in 10.0 mi South 12.7 mph - N/A   Overcast
11:54 PM 50.0 °F - 44.1 °F 80% 29.87 in 10.0 mi South 11.5 mph - N/A   Overcast